CW0630 Weather Reports


time (UTC)temp
C
wind
direction
speed
KPH
gust
KPH
rain 1hr
cm
rain 24hr
cm
rain mn
cm
humidity
%
barometer
mb
20240225111022 -1 326 0.0 0.0 0.00 0.56 0.00 83 1020.0
20240225101034 -1 350 0.0 0.0 0.00 0.58 0.00 82 1019.3
20240225091021 0 346 4.8 4.8 0.00 0.58 0.00 74 1018.3
20240225081018 0 5 3.2 3.2 0.00 0.58 0.00 78 1018.2
20240225071017 2 345 4.8 4.8 0.00 0.58 0.00 79 1018.0
20240225061033 2 327 0.0 3.2 0.00 0.58 0.00 82 1017.6
20240225051041 2 5 1.6 4.8 0.00 0.58 0.58 84 1016.9
20240225041028 2 360 3.2 4.8 0.00 0.58 0.58 90 1016.1
20240225031029 3 343 8.0 9.7 0.05 0.58 0.58 92 1015.1
20240225021021 3 360 11.3 16.1 0.15 0.56 0.56 90 1014.4
20240225011012 4 5 8.0 16.1 0.05 0.41 0.41 89 1013.0
20240225001016 6 355 6.4 9.7 0.13 0.36 0.36 90 1011.4
20240224231027 7 338 4.8 4.8 0.05 0.23 0.23 90 1009.9
20240224221027 7 223 0.0 0.0 0.08 0.18 0.18 88 1008.3
20240224211044 8 222 0.0 0.0 0.08 0.10 0.10 84 1007.0
20240224201022 10 190 1.6 4.8 0.00 0.05 0.03 65 1005.9
20240224191020 12 175 1.6 1.6 0.00 0.18 0.03 52 1005.2
20240224181030 12 312 3.2 3.2 0.00 0.43 0.03 53 1005.2
20240224171016 12 355 3.2 3.2 0.00 0.58 0.03 55 1005.6
20240224161031 11 319 8.0 8.0 0.00 0.66 0.03 65 1005.9
20240224151021 10 340 0.0 6.4 0.00 0.71 0.03 68 1005.6
20240224141033 7 32 4.8 4.8 0.00 0.71 0.03 90 1005.6
20240224131016 5 360 0.0 0.0 0.00 0.71 0.03 97 1005.1
20240224121046 1 10 0.0 0.0 0.00 0.71 0.03 96 1003.6